O3B FM11
Last updated on Wed Jun 24 2026 00:03:25 GMT+0000 (Coordinated Universal Time)
1 40349U 14083B 26173.56909417 -.00000023 00000+0 00000+0 0 9990
2 40349 0.0554 353.8482 0002672 80.7971 285.3826 5.00115560210187
Next 0 passes for location: London (51.5072 / 0.1276)
No passes found over London.